Hourly Data Report for September 25, 2018

TORONTO CITY
ONTARIO
Current Station Operator: ECCC - MSC

43°40'00.000" N
79°24'00.000" W
112.50 m
6158355
71508
XTO

Download Data

Hourly Data (September 2018)
Hourly Data Report for September 25, 2018
TIME
LST
Temp Definition
°C
Dew Point Definition
°C
Rel Hum Definition
%
Precip. Amount Definition
mm

Wind Dir Definition
10's deg

Wind Spd Definition
km/h
Visibility Definition
km
Stn Press Definition
kPa
Hmdx Definition


Wind Chill Definition


Weather Definition


00:00 16.3 14.3 88 1.0 LegendMM LegendMM   100.90     LegendNANA
01:00 16.3 14.4 89 2.7 LegendMM LegendMM   100.84     LegendNANA
02:00 16.4 14.6 89 1.8 LegendMM LegendMM   100.77     LegendNANA
03:00 16.1 14.1 88 1.3 LegendMM LegendMM   100.71     LegendNANA
04:00 16.3 14.5 89 1.0 LegendMM LegendMM   100.64     LegendNANA
05:00 16.1 14.4 89 1.8 LegendMM LegendMM   100.60     LegendNANA
06:00 16.4 14.4 88 0.3 LegendMM LegendMM   100.55     LegendNANA
07:00 16.5 14.5 88 1.4 LegendMM LegendMM   100.50     LegendNANA
08:00 16.9 15.2 90 0.2 LegendMM LegendMM   100.42     LegendNANA
09:00 17.5 15.8 90 0.3 LegendMM LegendMM   100.40     LegendNANA
10:00 18.0 16.3 90 0.5 LegendMM LegendMM   100.34     LegendNANA
11:00 18.5 17.0 91 0.5 LegendMM LegendMM   100.29     LegendNANA
12:00 19.4 17.7 90 0.0 LegendMM LegendMM   100.24     LegendNANA
13:00 19.9 17.9 88 0.0 LegendMM LegendMM   100.22     LegendNANA
14:00 20.3 18.0 86 0.0 LegendMM LegendMM   100.15 26   LegendNANA
15:00 20.3 18.1 87 0.0 LegendMM LegendMM   100.08 26   LegendNANA
16:00 20.7 18.2 86 0.0 LegendMM LegendMM   100.04 27   LegendNANA
17:00 21.2 18.5 85 0.0 LegendMM LegendMM   100.01 28   LegendNANA
18:00 21.1 18.3 84 0.0 LegendMM LegendMM   99.93 27   LegendNANA
19:00 21.1 18.3 84 0.0 LegendMM LegendMM   99.94 27   LegendNANA
20:00 21.3 18.6 85 0.0 LegendMM LegendMM   99.92 28   LegendNANA
21:00 21.3 18.7 85 0.0 LegendMM LegendMM   99.85 28   LegendNANA
22:00 20.8 18.8 89 0.5 LegendMM LegendMM   99.83 27   LegendNANA
23:00 20.7 19.0 90 0.2 LegendMM LegendMM   99.74 27   LegendNANA

Notes on Data Quality.

Legend

  • E = Estimated
  • M = Missing
  • NA = Not Available*
  • [empty] = Indicates an unobserved value
Date modified: